Year,Month,Day,Hour,Minute,Value (Times are PST for temperature in C)
2018,08,22,00,00,17.90
2018,08,22,00,01,17.90
2018,08,22,00,02,17.90
2018,08,22,00,03,17.90
2018,08,22,00,04,17.90
2018,08,22,00,05,17.80
2018,08,22,00,06,17.80
2018,08,22,00,07,17.80
2018,08,22,00,08,17.80
2018,08,22,00,09,17.80
2018,08,22,00,10,17.70
2018,08,22,00,11,17.70
2018,08,22,00,12,17.60
2018,08,22,00,13,17.50
2018,08,22,00,14,17.50
2018,08,22,00,15,17.40
2018,08,22,00,16,17.30
2018,08,22,00,17,17.30
2018,08,22,00,18,17.30
2018,08,22,00,19,17.20
2018,08,22,00,20,17.20
2018,08,22,00,21,17.10
2018,08,22,00,22,17.10
2018,08,22,00,23,17.00
2018,08,22,00,24,17.00
2018,08,22,00,25,17.00
2018,08,22,00,26,16.90
2018,08,22,00,27,16.90
2018,08,22,00,28,16.90
2018,08,22,00,29,16.80
2018,08,22,00,30,16.80
2018,08,22,00,31,16.80
2018,08,22,00,32,16.70
2018,08,22,00,33,16.70
2018,08,22,00,34,16.70
2018,08,22,00,35,16.70
2018,08,22,00,36,16.70
2018,08,22,00,37,16.70
2018,08,22,00,38,16.60
2018,08,22,00,39,16.60
2018,08,22,00,40,16.60
2018,08,22,00,41,16.50
2018,08,22,00,42,16.40
2018,08,22,00,43,16.40
2018,08,22,00,44,16.40
2018,08,22,00,45,16.40
2018,08,22,00,46,16.30
2018,08,22,00,47,16.30
2018,08,22,00,48,16.30
2018,08,22,00,49,16.20
2018,08,22,00,50,16.20
2018,08,22,00,51,16.20
2018,08,22,00,52,16.10
2018,08,22,00,53,16.10
2018,08,22,00,54,16.10
2018,08,22,00,55,16.10
2018,08,22,00,56,16.10
2018,08,22,00,57,16.10
2018,08,22,00,58,15.90
2018,08,22,00,59,15.90
2018,08,22,01,00,15.90
2018,08,22,01,01,15.90
2018,08,22,01,02,15.90
2018,08,22,01,03,15.90
2018,08,22,01,04,15.90
2018,08,22,01,05,15.90
2018,08,22,01,06,15.90
2018,08,22,01,07,15.90
2018,08,22,01,08,15.80
2018,08,22,01,09,15.80
2018,08,22,01,10,15.80
2018,08,22,01,11,15.80
2018,08,22,01,12,15.80
2018,08,22,01,13,15.80
2018,08,22,01,14,15.80
2018,08,22,01,15,15.80
2018,08,22,01,16,15.80
2018,08,22,01,17,15.80
2018,08,22,01,18,15.80
2018,08,22,01,19,15.70
2018,08,22,01,20,15.70
2018,08,22,01,21,15.70
2018,08,22,01,22,15.70
2018,08,22,01,23,15.70
2018,08,22,01,24,15.70
2018,08,22,01,25,15.60
2018,08,22,01,26,15.60
2018,08,22,01,27,15.60
2018,08,22,01,28,15.60
2018,08,22,01,29,15.60
2018,08,22,01,30,15.60
2018,08,22,01,31,15.60
2018,08,22,01,32,15.60
2018,08,22,01,33,15.60
2018,08,22,01,34,15.50
2018,08,22,01,35,15.50
2018,08,22,01,36,15.50
2018,08,22,01,37,15.50
2018,08,22,01,38,15.50
2018,08,22,01,39,15.50
2018,08,22,01,40,15.40
2018,08,22,01,41,15.40
2018,08,22,01,42,15.40
2018,08,22,01,43,15.40
2018,08,22,01,44,15.40
2018,08,22,01,45,15.40
2018,08,22,01,46,15.40
2018,08,22,01,47,15.40
2018,08,22,01,48,15.40
2018,08,22,01,49,15.40
2018,08,22,01,50,15.40
2018,08,22,01,51,15.40
2018,08,22,01,52,15.50
2018,08,22,01,53,15.50
2018,08,22,01,54,15.60
2018,08,22,01,55,15.70
2018,08,22,01,56,15.70
2018,08,22,01,57,15.80
2018,08,22,01,58,15.80
2018,08,22,01,59,15.90
2018,08,22,02,00,15.90
2018,08,22,02,01,16.00
2018,08,22,02,02,16.10
2018,08,22,02,03,16.10
2018,08,22,02,04,16.10
2018,08,22,02,05,16.10
2018,08,22,02,06,16.10
2018,08,22,02,07,16.10
2018,08,22,02,08,16.10
2018,08,22,02,09,16.10
2018,08,22,02,10,16.10
2018,08,22,02,11,16.10
2018,08,22,02,12,16.10
2018,08,22,02,13,16.10
2018,08,22,02,14,16.10
2018,08,22,02,15,16.00
2018,08,22,02,16,15.90
2018,08,22,02,17,15.90
2018,08,22,02,18,15.90
2018,08,22,02,19,15.80
2018,08,22,02,20,15.80
2018,08,22,02,21,15.80
2018,08,22,02,22,15.80
2018,08,22,02,23,15.80
2018,08,22,02,24,15.80
2018,08,22,02,25,15.80
2018,08,22,02,26,15.90
2018,08,22,02,27,15.90
2018,08,22,02,28,15.90
2018,08,22,02,29,15.90
2018,08,22,02,30,15.90
2018,08,22,02,31,15.90
2018,08,22,02,32,15.90
2018,08,22,02,33,15.90
2018,08,22,02,34,15.90
2018,08,22,02,35,15.90
2018,08,22,02,36,15.90
2018,08,22,02,37,15.90
2018,08,22,02,38,15.90
2018,08,22,02,39,15.90
2018,08,22,02,40,15.90
2018,08,22,02,41,16.00
2018,08,22,02,42,16.10
2018,08,22,02,43,16.10
2018,08,22,02,44,16.10
2018,08,22,02,45,16.20
2018,08,22,02,46,16.20
2018,08,22,02,47,16.30
2018,08,22,02,48,16.40
2018,08,22,02,49,16.40
2018,08,22,02,50,16.40
2018,08,22,02,51,16.50
2018,08,22,02,52,16.60
2018,08,22,02,53,16.70
2018,08,22,02,54,16.70
2018,08,22,02,55,16.70
2018,08,22,02,56,16.80
2018,08,22,02,57,16.80
2018,08,22,02,58,16.90
2018,08,22,02,59,16.90
2018,08,22,03,00,17.00
2018,08,22,03,01,17.00
2018,08,22,03,02,17.00
2018,08,22,03,03,17.10
2018,08,22,03,04,17.10
2018,08,22,03,05,17.10
2018,08,22,03,06,17.10
2018,08,22,03,07,17.20
2018,08,22,03,08,17.20
2018,08,22,03,09,17.20
2018,08,22,03,10,17.20
2018,08,22,03,11,17.30
2018,08,22,03,12,17.30
2018,08,22,03,13,17.30
2018,08,22,03,14,17.30
2018,08,22,03,15,17.30
2018,08,22,03,16,17.30
2018,08,22,03,17,17.30
2018,08,22,03,18,17.30
2018,08,22,03,19,17.20
2018,08,22,03,20,17.20
2018,08,22,03,21,17.10
2018,08,22,03,22,17.10
2018,08,22,03,23,17.00
2018,08,22,03,24,17.00
2018,08,22,03,25,17.00
2018,08,22,03,26,16.90
2018,08,22,03,27,16.80
2018,08,22,03,28,16.70
2018,08,22,03,29,16.60
2018,08,22,03,30,16.40
2018,08,22,03,31,16.30
2018,08,22,03,32,16.20
2018,08,22,03,33,16.10
2018,08,22,03,34,16.10
2018,08,22,03,35,15.90
2018,08,22,03,36,15.90
2018,08,22,03,37,15.80
2018,08,22,03,38,15.80
2018,08,22,03,39,15.80
2018,08,22,03,40,15.80
2018,08,22,03,41,15.80
2018,08,22,03,42,15.80
2018,08,22,03,43,15.80
2018,08,22,03,44,15.90
2018,08,22,03,45,16.00
2018,08,22,03,46,16.10
2018,08,22,03,47,16.20
2018,08,22,03,48,16.30
2018,08,22,03,49,16.30
2018,08,22,03,50,16.40
2018,08,22,03,51,16.50
2018,08,22,03,52,16.60
2018,08,22,03,53,16.70
2018,08,22,03,54,16.70
2018,08,22,03,55,16.80
2018,08,22,03,56,16.80
2018,08,22,03,57,16.80
2018,08,22,03,58,16.80
2018,08,22,03,59,16.80
2018,08,22,04,00,16.80
2018,08,22,04,01,16.80
2018,08,22,04,02,16.70
2018,08,22,04,03,16.70
2018,08,22,04,04,16.70
2018,08,22,04,05,16.70
2018,08,22,04,06,16.70
2018,08,22,04,07,16.70
2018,08,22,04,08,16.70
2018,08,22,04,09,16.80
2018,08,22,04,10,16.90
2018,08,22,04,11,16.90
2018,08,22,04,12,16.90
2018,08,22,04,13,16.80
2018,08,22,04,14,16.70
2018,08,22,04,15,16.70
2018,08,22,04,16,16.60
2018,08,22,04,17,16.50
2018,08,22,04,18,16.40
2018,08,22,04,19,16.40
2018,08,22,04,20,16.40
2018,08,22,04,21,16.30
2018,08,22,04,22,16.30
2018,08,22,04,23,16.20
2018,08,22,04,24,16.20
2018,08,22,04,25,16.10
2018,08,22,04,26,16.10
2018,08,22,04,27,15.90
2018,08,22,04,28,15.90
2018,08,22,04,29,15.80
2018,08,22,04,30,15.80
2018,08,22,04,31,15.80
2018,08,22,04,32,15.80
2018,08,22,04,33,15.80
2018,08,22,04,34,15.80
2018,08,22,04,35,15.90
2018,08,22,04,36,15.90
2018,08,22,04,37,15.90
2018,08,22,04,38,16.00
2018,08,22,04,39,16.10
2018,08,22,04,40,16.10
2018,08,22,04,41,16.10
2018,08,22,04,42,16.20
2018,08,22,04,43,16.20
2018,08,22,04,44,16.30
2018,08,22,04,45,16.30
2018,08,22,04,46,16.40
2018,08,22,04,47,16.40
2018,08,22,04,48,16.40
2018,08,22,04,49,16.40
2018,08,22,04,50,16.40
2018,08,22,04,51,16.40
2018,08,22,04,52,16.60
2018,08,22,04,53,16.60
2018,08,22,04,54,16.60
2018,08,22,04,55,16.60
2018,08,22,04,56,16.60
2018,08,22,04,57,16.60
2018,08,22,04,58,16.60
2018,08,22,04,59,16.60
2018,08,22,05,00,16.60
2018,08,22,05,01,16.70
2018,08,22,05,02,16.70
2018,08,22,05,03,16.70
2018,08,22,05,04,16.70
2018,08,22,05,05,16.70
2018,08,22,05,06,16.70
2018,08,22,05,07,16.70
2018,08,22,05,08,16.70
2018,08,22,05,09,16.70
2018,08,22,05,10,16.70
2018,08,22,05,11,16.70
2018,08,22,05,12,16.70
2018,08,22,05,13,16.70
2018,08,22,05,14,16.60
2018,08,22,05,15,16.50
2018,08,22,05,16,16.40
2018,08,22,05,17,16.40
2018,08,22,05,18,16.30
2018,08,22,05,19,16.30
2018,08,22,05,20,16.20
2018,08,22,05,21,16.10
2018,08,22,05,22,16.10
2018,08,22,05,23,16.00
2018,08,22,05,24,15.90
2018,08,22,05,25,15.90
2018,08,22,05,26,15.80
2018,08,22,05,27,15.80
2018,08,22,05,28,15.80
2018,08,22,05,29,15.80
2018,08,22,05,30,15.70
2018,08,22,05,31,15.60
2018,08,22,05,32,15.60
2018,08,22,05,33,15.60
2018,08,22,05,34,15.50
2018,08,22,05,35,15.50
2018,08,22,05,36,15.40
2018,08,22,05,37,15.40
2018,08,22,05,38,15.40
2018,08,22,05,39,15.30
2018,08,22,05,40,15.30
2018,08,22,05,41,15.30
2018,08,22,05,42,15.30
2018,08,22,05,43,15.30
2018,08,22,05,44,15.30
2018,08,22,05,45,15.30
2018,08,22,05,46,15.30
2018,08,22,05,47,15.30
2018,08,22,05,48,15.30
2018,08,22,05,49,15.30
2018,08,22,05,50,15.30
2018,08,22,05,51,15.30
2018,08,22,05,52,15.30
2018,08,22,05,53,15.30
2018,08,22,05,54,15.30
2018,08,22,05,55,15.30
2018,08,22,05,56,15.40
2018,08,22,05,57,15.40
2018,08,22,05,58,15.50
2018,08,22,05,59,15.50
2018,08,22,06,00,15.50
2018,08,22,06,01,15.50
2018,08,22,06,02,15.60
2018,08,22,06,03,15.60
2018,08,22,06,04,15.60
2018,08,22,06,05,15.70
2018,08,22,06,06,15.70
2018,08,22,06,07,15.70
2018,08,22,06,08,15.70
2018,08,22,06,09,15.70
2018,08,22,06,10,15.70
2018,08,22,06,11,15.60
2018,08,22,06,12,15.60
2018,08,22,06,13,15.60
2018,08,22,06,14,15.60
2018,08,22,06,15,15.60
2018,08,22,06,16,15.50
2018,08,22,06,17,15.50
2018,08,22,06,18,15.50
2018,08,22,06,19,15.50
2018,08,22,06,20,15.50
2018,08,22,06,21,15.50
2018,08,22,06,22,15.50
2018,08,22,06,23,15.60
2018,08,22,06,24,15.60
2018,08,22,06,25,15.60
2018,08,22,06,26,15.60
2018,08,22,06,27,15.60
2018,08,22,06,28,15.60
2018,08,22,06,29,15.60
2018,08,22,06,30,15.60
2018,08,22,06,31,15.60
2018,08,22,06,32,15.50
2018,08,22,06,33,15.50
2018,08,22,06,34,15.50
2018,08,22,06,35,15.50
2018,08,22,06,36,15.50
2018,08,22,06,37,15.50
2018,08,22,06,38,15.50
2018,08,22,06,39,15.40
2018,08,22,06,40,15.40
2018,08,22,06,41,15.40
2018,08,22,06,42,15.40
2018,08,22,06,43,15.40
2018,08,22,06,44,15.40
2018,08,22,06,45,15.40
2018,08,22,06,46,15.40
2018,08,22,06,47,15.40
2018,08,22,06,48,15.40
2018,08,22,06,49,15.40
2018,08,22,06,50,15.40
2018,08,22,06,51,15.40
2018,08,22,06,52,15.40
2018,08,22,06,53,15.40
2018,08,22,06,54,15.40
2018,08,22,06,55,15.40
2018,08,22,06,56,15.40
2018,08,22,06,57,15.40
2018,08,22,06,58,15.40
2018,08,22,06,59,15.40
2018,08,22,07,00,15.40
2018,08,22,07,01,15.40
2018,08,22,07,02,15.30
2018,08,22,07,03,15.40
2018,08,22,07,04,15.40
2018,08,22,07,05,15.40
2018,08,22,07,06,15.40
2018,08,22,07,07,15.50
2018,08,22,07,08,15.50
2018,08,22,07,09,15.60
2018,08,22,07,10,15.60
2018,08,22,07,11,15.70
2018,08,22,07,12,15.70
2018,08,22,07,13,15.80
2018,08,22,07,14,15.80
2018,08,22,07,15,15.90
2018,08,22,07,16,15.90
2018,08,22,07,17,16.10
2018,08,22,07,18,16.10
2018,08,22,07,19,16.10
2018,08,22,07,20,16.10
2018,08,22,07,21,16.10
2018,08,22,07,22,16.10
2018,08,22,07,23,16.10
2018,08,22,07,24,16.20
2018,08,22,07,25,16.20
2018,08,22,07,26,16.30
2018,08,22,07,27,16.30
2018,08,22,07,28,16.40
2018,08,22,07,29,16.40
2018,08,22,07,30,16.40
2018,08,22,07,31,16.40
2018,08,22,07,32,16.50
2018,08,22,07,33,16.60
2018,08,22,07,34,16.60
2018,08,22,07,35,16.60
2018,08,22,07,36,16.70
2018,08,22,07,37,16.70
2018,08,22,07,38,16.70
2018,08,22,07,39,16.70
2018,08,22,07,40,16.70
2018,08,22,07,41,16.70
2018,08,22,07,42,16.70
2018,08,22,07,43,16.70
2018,08,22,07,44,16.70
2018,08,22,07,45,16.60
2018,08,22,07,46,16.60
2018,08,22,07,47,16.50
2018,08,22,07,48,16.40
2018,08,22,07,49,16.40
2018,08,22,07,50,16.40
2018,08,22,07,51,16.40
2018,08,22,07,52,16.40
2018,08,22,07,53,16.40
2018,08,22,07,54,16.40
2018,08,22,07,55,16.40
2018,08,22,07,56,16.50
2018,08,22,07,57,16.50
2018,08,22,07,58,16.60
2018,08,22,07,59,16.60
2018,08,22,08,00,16.60
2018,08,22,08,01,16.60
2018,08,22,08,02,16.60
2018,08,22,08,03,16.60
2018,08,22,08,04,16.70
2018,08,22,08,05,16.70
2018,08,22,08,06,16.70
2018,08,22,08,07,16.70
2018,08,22,08,08,16.70
2018,08,22,08,09,16.70
2018,08,22,08,10,16.80
2018,08,22,08,11,16.80
2018,08,22,08,12,16.90
2018,08,22,08,13,16.90
2018,08,22,08,14,17.00
2018,08,22,08,15,17.00
2018,08,22,08,16,17.10
2018,08,22,08,17,17.20
2018,08,22,08,18,17.20
2018,08,22,08,19,17.30
2018,08,22,08,20,17.30
2018,08,22,08,21,17.30
2018,08,22,08,22,17.40
2018,08,22,08,23,17.40
2018,08,22,08,24,17.50
2018,08,22,08,25,17.50
2018,08,22,08,26,17.50
2018,08,22,08,27,17.60
2018,08,22,08,28,17.60
2018,08,22,08,29,17.60
2018,08,22,08,30,17.70
2018,08,22,08,31,17.70
2018,08,22,08,32,17.80
2018,08,22,08,33,17.80
2018,08,22,08,34,17.90
2018,08,22,08,35,17.90
2018,08,22,08,36,17.90
2018,08,22,08,37,18.00
2018,08,22,08,38,18.10
2018,08,22,08,39,18.10
2018,08,22,08,40,18.20
2018,08,22,08,41,18.20
2018,08,22,08,42,18.20
2018,08,22,08,43,18.30
2018,08,22,08,44,18.40
2018,08,22,08,45,18.40
2018,08,22,08,46,18.50
2018,08,22,08,47,18.60
2018,08,22,08,48,18.60
2018,08,22,08,49,18.70
2018,08,22,08,50,18.80
2018,08,22,08,51,18.90
2018,08,22,08,52,18.90
2018,08,22,08,53,19.00
2018,08,22,08,54,19.10
2018,08,22,08,55,19.10
2018,08,22,08,56,19.10
2018,08,22,08,57,19.20
2018,08,22,08,58,19.20
2018,08,22,08,59,19.30
2018,08,22,09,00,19.40
2018,08,22,09,01,19.40
2018,08,22,09,02,19.40
2018,08,22,09,03,19.50
2018,08,22,09,04,19.50
2018,08,22,09,05,19.60
2018,08,22,09,06,19.70
2018,08,22,09,07,19.70
2018,08,22,09,08,19.80
2018,08,22,09,09,19.90
2018,08,22,09,10,20.00
2018,08,22,09,11,20.10
2018,08,22,09,12,20.20
2018,08,22,09,13,20.20
2018,08,22,09,14,20.30
2018,08,22,09,15,20.30
2018,08,22,09,16,20.40
2018,08,22,09,17,20.40
2018,08,22,09,18,20.50
2018,08,22,09,19,20.50
2018,08,22,09,20,20.60
2018,08,22,09,21,20.60
2018,08,22,09,22,20.70
2018,08,22,09,23,20.80
2018,08,22,09,24,20.80
2018,08,22,09,25,20.90
2018,08,22,09,26,20.90
2018,08,22,09,27,20.90
2018,08,22,09,28,20.90
2018,08,22,09,29,20.90
2018,08,22,09,30,20.90
2018,08,22,09,31,20.90
2018,08,22,09,32,20.90
2018,08,22,09,33,21.00
2018,08,22,09,34,21.00
2018,08,22,09,35,20.90
2018,08,22,09,36,20.90
2018,08,22,09,37,20.90
2018,08,22,09,38,20.90
2018,08,22,09,39,20.80
2018,08,22,09,40,20.80
2018,08,22,09,41,20.80
2018,08,22,09,42,20.80
2018,08,22,09,43,20.80
2018,08,22,09,44,20.90
2018,08,22,09,45,20.90
2018,08,22,09,46,21.00
2018,08,22,09,47,21.10
2018,08,22,09,48,21.10
2018,08,22,09,49,21.20
2018,08,22,09,50,21.30
2018,08,22,09,51,21.30
2018,08,22,09,52,21.30
2018,08,22,09,53,21.40
2018,08,22,09,54,21.40
2018,08,22,09,55,21.50
2018,08,22,09,56,21.60
2018,08,22,09,57,21.60
2018,08,22,09,58,21.70
2018,08,22,09,59,21.80
2018,08,22,10,00,21.80
2018,08,22,10,01,21.90
2018,08,22,10,02,21.90
2018,08,22,10,03,22.00
2018,08,22,10,04,22.00
2018,08,22,10,05,22.00
2018,08,22,10,06,22.10
2018,08,22,10,07,22.10
2018,08,22,10,08,22.10
2018,08,22,10,09,22.20
2018,08,22,10,10,22.20
2018,08,22,10,11,22.20
2018,08,22,10,12,22.30
2018,08,22,10,13,22.30
2018,08,22,10,14,22.20
2018,08,22,10,15,22.20
2018,08,22,10,16,22.20
2018,08,22,10,17,22.10
2018,08,22,10,18,22.10
2018,08,22,10,19,22.10
2018,08,22,10,20,22.10
2018,08,22,10,21,22.10
2018,08,22,10,22,22.10
2018,08,22,10,23,22.10
2018,08,22,10,24,22.10
2018,08,22,10,25,22.10
2018,08,22,10,26,22.10
2018,08,22,10,27,22.00
2018,08,22,10,28,22.00
2018,08,22,10,29,21.90
2018,08,22,10,30,21.80
2018,08,22,10,31,21.80
2018,08,22,10,32,21.70
2018,08,22,10,33,21.70
2018,08,22,10,34,21.80
2018,08,22,10,35,21.80
2018,08,22,10,36,21.90
2018,08,22,10,37,21.90
2018,08,22,10,38,22.00
2018,08,22,10,39,22.10
2018,08,22,10,40,22.10
2018,08,22,10,41,22.10
2018,08,22,10,42,22.10
2018,08,22,10,43,22.20
2018,08,22,10,44,22.20
2018,08,22,10,45,22.20
2018,08,22,10,46,22.30
2018,08,22,10,47,22.30
2018,08,22,10,48,22.20
2018,08,22,10,49,22.30
2018,08,22,10,50,22.30
2018,08,22,10,51,22.40
2018,08,22,10,52,22.40
2018,08,22,10,53,22.40
2018,08,22,10,54,22.40
2018,08,22,10,55,22.40
2018,08,22,10,56,22.30
2018,08,22,10,57,22.30
2018,08,22,10,58,22.30
2018,08,22,10,59,22.30
2018,08,22,11,00,22.30
2018,08,22,11,01,22.40
2018,08,22,11,02,22.40
2018,08,22,11,03,22.40
2018,08,22,11,04,22.50
2018,08,22,11,05,22.50
2018,08,22,11,06,22.60
2018,08,22,11,07,22.60
2018,08,22,11,08,22.60
2018,08,22,11,09,22.60
2018,08,22,11,10,22.70
2018,08,22,11,11,22.70
2018,08,22,11,12,22.70
2018,08,22,11,13,22.70
2018,08,22,11,14,22.80
2018,08,22,11,15,22.80
2018,08,22,11,16,22.80
2018,08,22,11,17,22.70
2018,08,22,11,18,22.70
2018,08,22,11,19,22.70
2018,08,22,11,20,22.70
2018,08,22,11,21,22.80
2018,08,22,11,22,22.80
2018,08,22,11,23,22.80
2018,08,22,11,24,22.80
2018,08,22,11,25,22.70
2018,08,22,11,26,22.60
2018,08,22,11,27,22.60
2018,08,22,11,28,22.50
2018,08,22,11,29,22.50
2018,08,22,11,30,22.50
2018,08,22,11,31,22.50
2018,08,22,11,32,22.40
2018,08,22,11,33,22.40
2018,08,22,11,34,22.30
2018,08,22,11,35,22.40
2018,08,22,11,36,22.30
2018,08,22,11,37,22.30
2018,08,22,11,38,22.30
2018,08,22,11,39,22.30
2018,08,22,11,40,22.30
2018,08,22,11,41,22.30
2018,08,22,11,42,22.30
2018,08,22,11,43,22.20
2018,08,22,11,44,22.30
2018,08,22,11,45,22.30
2018,08,22,11,46,22.30
2018,08,22,11,47,22.40
2018,08,22,11,48,22.50
2018,08,22,11,49,22.60
2018,08,22,11,50,22.60
2018,08,22,11,51,22.70
2018,08,22,11,52,22.80
2018,08,22,11,53,22.90
2018,08,22,11,54,22.90
2018,08,22,11,55,22.90
2018,08,22,11,56,22.90
2018,08,22,11,57,22.90
2018,08,22,11,58,22.90
2018,08,22,11,59,22.90
2018,08,22,12,00,22.90
2018,08,22,12,01,22.90
2018,08,22,12,02,22.90
2018,08,22,12,03,22.90
2018,08,22,12,04,22.90
2018,08,22,12,05,22.80
2018,08,22,12,06,22.70
2018,08,22,12,07,22.70
2018,08,22,12,08,22.60
2018,08,22,12,09,22.60
2018,08,22,12,10,22.60
2018,08,22,12,11,22.60
2018,08,22,12,12,22.60
2018,08,22,12,13,22.50
2018,08,22,12,14,22.50
2018,08,22,12,15,22.40
2018,08,22,12,16,22.50
2018,08,22,12,17,22.50
2018,08,22,12,18,22.60
2018,08,22,12,19,22.70
2018,08,22,12,20,22.70
2018,08,22,12,21,22.80
2018,08,22,12,22,22.80
2018,08,22,12,23,22.80
2018,08,22,12,24,22.80
2018,08,22,12,25,22.80
2018,08,22,12,26,22.90
2018,08,22,12,27,22.90
2018,08,22,12,28,22.90
2018,08,22,12,29,22.90
2018,08,22,12,30,22.90
2018,08,22,12,31,22.90
2018,08,22,12,32,22.90
2018,08,22,12,33,22.90
2018,08,22,12,34,22.90
2018,08,22,12,35,22.90
2018,08,22,12,36,23.10
2018,08,22,12,37,23.10
2018,08,22,12,38,23.30
2018,08,22,12,39,23.30
2018,08,22,12,40,23.30
2018,08,22,12,41,23.30
2018,08,22,12,42,23.40
2018,08,22,12,43,23.50
2018,08,22,12,44,23.60
2018,08,22,12,45,23.50
2018,08,22,12,46,23.40
2018,08,22,12,47,23.40
2018,08,22,12,48,23.30
2018,08,22,12,49,23.30
2018,08,22,12,50,23.30
2018,08,22,12,51,23.30
2018,08,22,12,52,23.30
2018,08,22,12,53,23.30
2018,08,22,12,54,23.30
2018,08,22,12,55,23.30
2018,08,22,12,56,23.40
2018,08,22,12,57,23.50
2018,08,22,12,58,23.60
2018,08,22,12,59,23.60
2018,08,22,13,00,23.70
2018,08,22,13,01,23.70
2018,08,22,13,02,23.70
2018,08,22,13,03,23.80
2018,08,22,13,04,23.90
2018,08,22,13,05,24.00
2018,08,22,13,06,24.10
2018,08,22,13,07,24.20
2018,08,22,13,08,24.20
2018,08,22,13,09,24.20
2018,08,22,13,10,24.20
2018,08,22,13,11,24.20
2018,08,22,13,12,24.20
2018,08,22,13,13,24.20
2018,08,22,13,14,24.10
2018,08,22,13,15,24.10
2018,08,22,13,16,24.10
2018,08,22,13,17,24.10
2018,08,22,13,18,24.10
2018,08,22,13,19,24.10
2018,08,22,13,20,24.10
2018,08,22,13,21,24.10
2018,08,22,13,22,24.10
2018,08,22,13,23,24.20
2018,08,22,13,24,24.20
2018,08,22,13,25,24.30
2018,08,22,13,26,24.40
2018,08,22,13,27,24.40
2018,08,22,13,28,24.40
2018,08,22,13,29,24.50
2018,08,22,13,30,24.50
2018,08,22,13,31,24.60
2018,08,22,13,32,24.70
2018,08,22,13,33,24.70
2018,08,22,13,34,24.80
2018,08,22,13,35,24.90
2018,08,22,13,36,25.00
2018,08,22,13,37,25.10
2018,08,22,13,38,25.20
2018,08,22,13,39,25.20
2018,08,22,13,40,25.30
2018,08,22,13,41,25.30
2018,08,22,13,42,25.30
2018,08,22,13,43,25.40
2018,08,22,13,44,25.40
2018,08,22,13,45,25.40
2018,08,22,13,46,25.40
2018,08,22,13,47,25.40
2018,08,22,13,48,25.30
2018,08,22,13,49,25.20
2018,08,22,13,50,25.10
2018,08,22,13,51,25.10
2018,08,22,13,52,25.10
2018,08,22,13,53,25.00
2018,08,22,13,54,25.10
2018,08,22,13,55,25.10
2018,08,22,13,56,25.10
2018,08,22,13,57,25.10
2018,08,22,13,58,25.00
2018,08,22,13,59,24.90
2018,08,22,14,00,24.90
2018,08,22,14,01,24.90
2018,08,22,14,02,24.90
2018,08,22,14,03,24.90
2018,08,22,14,04,24.90
2018,08,22,14,05,24.90
2018,08,22,14,06,25.00
2018,08,22,14,07,25.00
2018,08,22,14,08,24.90
2018,08,22,14,09,24.90
2018,08,22,14,10,24.90
2018,08,22,14,11,24.90
2018,08,22,14,12,24.90
2018,08,22,14,13,24.90
2018,08,22,14,14,24.90
2018,08,22,14,15,25.00
2018,08,22,14,16,25.00
2018,08,22,14,17,25.00
2018,08,22,14,18,25.10
2018,08,22,14,19,25.10
2018,08,22,14,20,25.00
2018,08,22,14,21,24.90
2018,08,22,14,22,24.90
2018,08,22,14,23,24.90
2018,08,22,14,24,24.90
2018,08,22,14,25,24.90
2018,08,22,14,26,24.90
2018,08,22,14,27,24.90
2018,08,22,14,28,25.00
2018,08,22,14,29,25.10
2018,08,22,14,30,25.10
2018,08,22,14,31,25.20
2018,08,22,14,32,25.10
2018,08,22,14,33,25.10
2018,08,22,14,34,25.20
2018,08,22,14,35,25.20
2018,08,22,14,36,25.30
2018,08,22,14,37,25.30
2018,08,22,14,38,25.30
2018,08,22,14,39,25.30
2018,08,22,14,40,25.20
2018,08,22,14,41,25.10
2018,08,22,14,42,25.10
2018,08,22,14,43,25.10
2018,08,22,14,44,25.00
2018,08,22,14,45,25.00
2018,08,22,14,46,25.00
2018,08,22,14,47,25.00
2018,08,22,14,48,25.00
2018,08,22,14,49,25.10
2018,08,22,14,50,25.10
2018,08,22,14,51,25.10
2018,08,22,14,52,25.20
2018,08,22,14,53,25.30
2018,08,22,14,54,25.30
2018,08,22,14,55,25.40
2018,08,22,14,56,25.40
2018,08,22,14,57,25.40
2018,08,22,14,58,25.40
2018,08,22,14,59,25.40
2018,08,22,15,00,25.40
2018,08,22,15,01,25.50
2018,08,22,15,02,25.50
2018,08,22,15,03,25.60
2018,08,22,15,04,25.60
2018,08,22,15,05,25.60
2018,08,22,15,06,25.60
2018,08,22,15,07,25.60
2018,08,22,15,08,25.60
2018,08,22,15,09,25.70
2018,08,22,15,10,25.70
2018,08,22,15,11,25.60
2018,08,22,15,12,25.50
2018,08,22,15,13,25.40
2018,08,22,15,14,25.40
2018,08,22,15,15,25.50
2018,08,22,15,16,25.60
2018,08,22,15,17,25.60
2018,08,22,15,18,25.70
2018,08,22,15,19,25.80
2018,08,22,15,20,25.80
2018,08,22,15,21,25.90
2018,08,22,15,22,25.90
2018,08,22,15,23,25.90
2018,08,22,15,24,25.90
2018,08,22,15,25,25.90
2018,08,22,15,26,26.00
2018,08,22,15,27,26.00
2018,08,22,15,28,26.00
2018,08,22,15,29,26.00
2018,08,22,15,30,25.90
2018,08,22,15,31,25.80
2018,08,22,15,32,25.80
2018,08,22,15,33,25.80
2018,08,22,15,34,25.80
2018,08,22,15,35,25.70
2018,08,22,15,36,25.70
2018,08,22,15,37,25.70
2018,08,22,15,38,25.70
2018,08,22,15,39,25.70
2018,08,22,15,40,25.60
2018,08,22,15,41,25.50
2018,08,22,15,42,25.50
2018,08,22,15,43,25.50
2018,08,22,15,44,25.50
2018,08,22,15,45,25.50
2018,08,22,15,46,25.50
2018,08,22,15,47,25.50
2018,08,22,15,48,25.50
2018,08,22,15,49,25.50
2018,08,22,15,50,25.50
2018,08,22,15,51,25.40
2018,08,22,15,52,25.40
2018,08,22,15,53,25.40
2018,08,22,15,54,25.50
2018,08,22,15,55,25.50
2018,08,22,15,56,25.50
2018,08,22,15,57,25.60
2018,08,22,15,58,25.60
2018,08,22,15,59,25.60
2018,08,22,16,00,25.60
2018,08,22,16,01,25.60
2018,08,22,16,02,25.50
2018,08,22,16,03,25.40
2018,08,22,16,04,25.40
2018,08,22,16,05,25.40
2018,08,22,16,06,25.40
2018,08,22,16,07,25.40
2018,08,22,16,08,25.40
2018,08,22,16,09,25.40
2018,08,22,16,10,25.50
2018,08,22,16,11,25.50
2018,08,22,16,12,25.50
2018,08,22,16,13,25.60
2018,08,22,16,14,25.60
2018,08,22,16,15,25.60
2018,08,22,16,16,25.60
2018,08,22,16,17,25.50
2018,08,22,16,18,25.50
2018,08,22,16,19,25.40
2018,08,22,16,20,25.40
2018,08,22,16,21,25.30
2018,08,22,16,22,25.30
2018,08,22,16,23,25.20
2018,08,22,16,24,25.20
2018,08,22,16,25,25.20
2018,08,22,16,26,25.20
2018,08,22,16,27,25.20
2018,08,22,16,28,25.20
2018,08,22,16,29,25.30
2018,08,22,16,30,25.40
2018,08,22,16,31,25.40
2018,08,22,16,32,25.40
2018,08,22,16,33,25.40
2018,08,22,16,34,25.40
2018,08,22,16,35,25.40
2018,08,22,16,36,25.40
2018,08,22,16,37,25.40
2018,08,22,16,38,25.40
2018,08,22,16,39,25.40
2018,08,22,16,40,25.30
2018,08,22,16,41,25.30
2018,08,22,16,42,25.30
2018,08,22,16,43,25.30
2018,08,22,16,44,25.30
2018,08,22,16,45,25.40
2018,08,22,16,46,25.40
2018,08,22,16,47,25.40
2018,08,22,16,48,25.40
2018,08,22,16,49,25.40
2018,08,22,16,50,25.40
2018,08,22,16,51,25.30
2018,08,22,16,52,25.30
2018,08,22,16,53,25.30
2018,08,22,16,54,25.30
2018,08,22,16,55,25.40
2018,08,22,16,56,25.40
2018,08,22,16,57,25.40
2018,08,22,16,58,25.40
2018,08,22,16,59,25.40
2018,08,22,17,00,25.40
2018,08,22,17,01,25.40
2018,08,22,17,02,25.40
2018,08,22,17,03,25.40
2018,08,22,17,04,25.30
2018,08,22,17,05,25.30
2018,08,22,17,06,25.20
2018,08,22,17,07,25.20
2018,08,22,17,08,25.10
2018,08,22,17,09,25.10
2018,08,22,17,10,25.20
2018,08,22,17,11,25.20
2018,08,22,17,12,25.20
2018,08,22,17,13,25.20
2018,08,22,17,14,25.10
2018,08,22,17,15,25.00
2018,08,22,17,16,25.00
2018,08,22,17,17,24.90
2018,08,22,17,18,24.90
2018,08,22,17,19,24.90